Regional Weather Roundup
Issued by NWS Newport/Morehead, NC

Current Version | Previous Version | Text Only | Print | Product List | Glossary Off
Versions: 1 2 3 4 5 6 7 8 9 10 11 12 13 14 15 16 17 18 19 20 21 22 23 24 25 26 27 28 29 30 31 32 33 34 35 36 37 38 39 40 41 42 43 44 45 46 47 48 49 50
000 ASUS42 KMHX 231322 RWRMHX WEATHER ROUNDUP FOR EASTERN NORTH CAROLINA NATIONAL WEATHER SERVICE NEWPORT/MOREHEAD CITY NC 900 AM EDT SAT AUG 23 2014 NOTE: "FAIR" INDICATES FEW OR NO CLOUDS BELOW 12,000 FEET WITH NO SIGNIFICANT WEATHER AND/OR OBSTRUCTIONS TO VISIBILITY NCZ015>017-031-032-045>047-102-103-231400- NORTH COAST CITY SKY/WX TMP DP RH WIND PRES REMARKS EDENTON MOSUNNY 77 73 88 NE5 29.96F ELIZABETH CITY PTSUNNY 79 73 83 E7 29.97S KITTY HAWK PTSUNNY 80 71 73 NE5 29.95S MANTEO MOSUNNY 79 70 73 NE9 29.96S $$ NCZ045>047-081-094-103-104-231400- CENTRAL COAST CITY SKY/WX TMP DP RH WIND PRES REMARKS FRISCO PTSUNNY 77 72 84 VRB3 29.95R SWANQUARTER N/A 79 N/A N/A N3 29.91S $$ NCZ095-097-098-100-101-231400- SOUTHERN COAST CITY SKY/WX TMP DP RH WIND PRES REMARKS BEAUFORT PTSUNNY 78 74 87 NE6 29.94S CEDAR ISLAND N/A 82 N/A N/A N1 30.00S JACKSONVILLE MOSUNNY 81 75 82 E7 29.93F NEWPORT NOT AVBL PINEY ISLAND CLOUDY 80 76 87 CALM 29.94S WILMINGTON PTSUNNY 81 76 84 E7 29.93R $$ NCZ011>013-027>030-043-044-078>080-089-090>093-098-231400- COASTAL PLAIN CITY SKY/WX TMP DP RH WIND PRES REMARKS AHOSKIE MOSUNNY 74 71 90 E3 29.98R CLINTON PTSUNNY 77 74 91 CALM 29.95S ELIZABETHTOWN CLOUDY 78 71 78 E3 29.94S GOLDSBORO CLOUDY 77 75 94 E7 29.93S GREENVILLE PTSUNNY 77 75 94 E3 29.98R FOG HAVELOCK PTSUNNY 78 74 87 E6 29.95S KENANSVILLE PTSUNNY 76 73 91 CALM 29.95S KINSTON PTSUNNY 77 73 88 E3 29.96R NEW BERN LGT RAIN 79 73 82 E5 29.96S RICHLANDS CLOUDY 79 73 83 E7 29.95S ROANOKE RAPIDS NOT AVBL ROCKY MOUNT PTSUNNY 75 73 93 VRB3 29.97R FOG WASHINGTON MOSUNNY 77 73 87 E3 29.96R WHITEVILLE CLOUDY 77 74 91 NE3 29.93R FOG $$ AMZ130-135-150-152-154-156-158-170-250-252-270-ANZ085-086-088-633-658-670-231400- MARINE OBSERVATIONS STATION/POSITION TIME TEMP WIND PRES WAVE SWELL AIR SEA DIR/SP/G HT/PER HT/PER (UTC) (F) (DEG/KT/KT) (MB) (FT/S) (FT/S) CHESAPEAKE LIGHT 1200 75 50/ 16/ 16 1015.4 BUOY 44014 1300 77 78 50/ 14/ 16 1013.9 3/ 5 2/ 7 DUCK 1300 77 80 50/ 9/ 10 1013.9 2E DUCK 1200 N/A 2/ 7 OREGON INLET 1300 78 81 30/ 11/ 14 1014.2 BUOY 44095 1300 80 N/A 2/ 8 20E OREGON INLET NOT AVBL HATTERAS CG 1300 80 82 70/ 5/ 6 1014.6 DIAMOND BUOY 1300 79 350/ 6/ 8 1013.8 2/ 8 2/ 8 CAPE LOOKOUT 1300 78 30/ 10/ 11 1013.9 BEAUFORT LAB 1300 78 83 70/ 6/ 10 1013.6 30 SE NEW RIVER 1300 81 82 100/ 6/ 6 1013.3 1/ 9 2/ 9 5 SE WRIGHTSVILL 1300 79 83 110/ 10/ 12 N/A BUOY 41002 NOT AVBL BUOY 41004 1300 85 84 230/ 12/ 12 1012.4 2/ 4 2/ 7 $$

USA.gov is the U.S. government's official web portal to all federal, state and local government web resources and services.